This is the latest recevied weather packets stored in our database for station/object K5UBE. If no packets are shown the sender has not sent any weather packets the latest 10 day(s).
| Time | Temp. | Humidity | Pressure | Rain* | Wind** | Luminosity | Snow |
|---|---|---|---|---|---|---|---|
| 1777932842 | 27.22° C | 12% | 1009.7 hPa | 0 mm | - | - | - |
| 1777932540 | 27.78° C | 12% | 1009.7 hPa | 0 mm | - | - | - |
| 1777932236 | 27.78° C | 12% | 1009.6 hPa | 0 mm | - | - | - |
| 1777931933 | 27.78° C | 12% | 1009.6 hPa | 0 mm | - | - | - |
| 1777931630 | 27.78° C | 12% | 1009.8 hPa | 0 mm | - | - | - |
| 1777931326 | 27.78° C | 12% | 1009.8 hPa | 0 mm | - | - | - |
| 1777931023 | 27.78° C | 12% | 1009.9 hPa | 0 mm | - | - | - |
| 1777930719 | 27.78° C | 13% | 1009.8 hPa | 0 mm | - | - | - |
| 1777930415 | 28.33° C | 12% | 1009.8 hPa | 0 mm | - | - | - |
| 1777930113 | 28.33° C | 13% | 1009.7 hPa | 0 mm | - | - | - |
| 1777929809 | 28.33° C | 12% | 1009.6 hPa | 0 mm | - | - | - |
| 1777929507 | 28.89° C | 12% | 1010.1 hPa | 0 mm | - | - | - |
| 1777929208 | 28.89° C | 12% | 1010.1 hPa | 0 mm | - | - | - |
| 1777928905 | 28.33° C | 13% | 1010.1 hPa | 0 mm | - | - | - |
| 1777928602 | 28.89° C | 13% | 1010.2 hPa | 0 mm | - | - | - |
| 1777928300 | 28.33° C | 14% | 1010.2 hPa | 0 mm | - | - | - |
| 1777927997 | 28.89° C | 13% | 1010.3 hPa | 0 mm | - | - | - |
| 1777927695 | 28.89° C | 14% | 1010.4 hPa | 0 mm | - | - | - |
| 1777927393 | 28.89° C | 16% | 1010.4 hPa | 0 mm | - | - | - |
| 1777927093 | 28.89° C | 16% | 1010.4 hPa | 0 mm | - | - | - |
| 1777926789 | 29.44° C | 17% | 1010.6 hPa | 0 mm | - | - | - |
| 1777926484 | 29.44° C | 18% | 1010.4 hPa | 0 mm | - | - | - |
| 1777926182 | 29.44° C | 19% | 1010.7 hPa | 0 mm | - | - | - |
| 1777925878 | 28.33° C | 20% | 1011 hPa | 0 mm | - | - | - |
| 1777925576 | 29.44° C | 20% | 1010.6 hPa | 0 mm | - | - | - |
* Rain latest hour (hover to see other rain measurements)
** Current wind speed in m/s (hover to see current wind gust speed)